Погода в Ищеине

Россия / Липецкая область     52°57′24″N   38°48′38″E
темп.,
°C
ветер,
м/с
пор.,
м/с
влажн.,
%
обл.,
%
осадки,
мм/ч
давл.,
гПа
погр.,
м
28 ноября, вс
вс2800:00+2ю61396100 0.1 1005417
03:00+3ю6129898 0.1 1005289
06:00+3ю4109896 0.0 1005258
09:00+4ююз4998100 0.0 1007257
12:00+5ююз4898100 0.0 1007283
15:00+5ююз369687 0.0 1009201
18:00+3ююз359655 0.0 101091
21:00+5ю3691100 0.0 1010115
29 ноября, пн
пн2900:00+6ююв4887100 0.0 1010236
03:00+4юв41195100 0.0 1009244
06:00+4юв51198100 0.0 1006290
09:00+6вюв61598100 3.9 1003534
12:00+7ююв71696100 4.3 999628
15:00+8ю61498100 5.4 998543
18:00+9ю61494100 0.1 996539
21:00+8юв61297100 0.8 991508
30 ноября, вт
вт3000:00+10ю91796100 10.0 985881
03:00+9ююз81693100 17.1 981699
06:00+8юз111887100 1.4 9811273
09:00+3зюз121877100 1.6 9881078
12:00+2зюз121864100 0.0 9901326
15:00+2юз11176772 0.0 9911415
18:00+1юз111973100 0.0 9921413
21:000юз10177789 0.0 9921133
1 декабря, ср
ср100:000юз8137589 0.0 9921030
03:00−1юз8127393 0.0 993984
06:00−1зюз7117490 0.0 9931007
09:00−1з7107599 0.0 995974
12:00−2з71082100 0.2 996952
15:00−2з71183100 0.6 998891
18:00−3зсз611655 0.0 1001771
21:00−3з610755 0.0 1003635
2 декабря, чт
чт200:00−3зюз498033 0.0 1004431
03:00−3ююз51176100 0.0 1004397
06:00−2ююз7157786 0.0 1003608
09:00−2ююз81589100 0.1 1002577
12:000ююз81795100 0.9 1001714
15:00+1юз81695100 1.4 1001672
18:00+2юз81680100 0.0 1002642
21:00+1юз71693100 0.0 1004597